CST,Max TemperatureF,Mean TemperatureF,Min TemperatureF,Max Dew PointF,MeanDew PointF,Min DewpointF,Max Humidity, Mean Humidity, Min Humidity, Max Sea Level PressureIn, Mean Sea Level PressureIn, Min Sea Level PressureIn, Max VisibilityMiles, Mean VisibilityMiles, Min VisibilityMiles, Max Wind SpeedMPH, Mean Wind SpeedMPH, Max Gust SpeedMPH,PrecipitationIn, CloudCover, Events, WindDirDegrees
2013-2-1,68,54,41,36,31,25,60,43,26,30.36,30.25,30.17,10,10,10,16,5,25,0.00,0,,150
2013-2-2,73,58,44,50,42,33,86,58,37,30.31,30.22,30.17,10,10,10,10,6,,0.00,0,,314
2013-2-3,68,55,42,44,33,23,65,41,20,30.35,30.21,30.01,10,10,10,10,7,17,0.00,0,,119
2013-2-4,73,64,54,56,52,45,93,73,46,30.00,29.90,29.79,10,10,9,14,8,21,0.00,4,Rain,191
2013-2-5,75,60,46,49,44,39,89,58,26,30.00,29.94,29.88,10,10,10,9,3,,0.00,0,,5
2013-2-6,73,66,59,56,54,49,82,71,55,30.01,29.93,29.83,10,10,10,12,6,17,0.00,4,,143
2013-2-7,82,70,57,57,51,33,97,67,18,30.11,29.94,29.86,10,9,4,16,10,22,0.00,4,,227
2013-2-8,66,56,46,42,29,19,64,39,17,30.24,30.15,30.09,10,10,10,18,12,28,0.00,0,,50
2013-2-9,66,58,50,64,54,34,100,88,47,30.10,29.93,29.76,10,4,0,15,9,25,0.00,7,Fog,149
2013-2-10,68,60,52,64,48,21,94,69,18,30.02,29.85,29.73,10,8,2,22,10,30,0.23,4,Rain-Thunderstorm,271
2013-2-11,57,52,48,46,43,36,87,75,45,30.17,30.04,29.99,10,10,2,14,7,20,0.05,7,Rain-Thunderstorm,47
2013-2-12,69,57,43,51,44,21,97,79,19,30.06,29.93,29.82,10,6,1,17,7,31,0.00,6,,301
2013-2-13,60,48,35,33,31,22,85,60,25,30.18,30.11,30.05,10,10,10,10,5,21,0.00,1,,320
2013-2-14,69,52,35,36,32,26,85,52,20,30.13,30.06,29.99,10,10,10,12,3,,0.00,0,,184
2013-2-15,55,48,39,36,31,19,68,53,34,30.41,30.25,30.07,10,10,10,16,8,23,0.00,3,,15
2013-2-16,62,46,30,29,24,19,72,47,21,30.46,30.34,30.21,10,10,10,15,3,18,0.00,0,,268
2013-2-17,68,54,39,48,33,26,70,48,25,30.20,30.08,29.94,10,10,10,20,7,31,0.00,1,,186
2013-2-18,79,67,53,55,41,18,78,49,11,30.11,29.92,29.83,10,10,10,20,15,29,0.00,4,,238
2013-2-19,63,51,39,30,26,19,63,37,18,30.29,30.16,30.09,10,10,10,17,9,22,0.00,1,,79
2013-2-20,62,56,50,61,44,28,97,76,37,30.06,29.87,29.64,10,6,1,15,11,28,0.00,8,Rain,109
2013-2-21,72,59,46,63,43,13,97,58,10,29.86,29.71,29.58,10,8,5,23,13,38,0.00,4,Rain,235
2013-2-22,57,47,37,37,29,25,80,51,34,30.09,30.01,29.87,10,10,10,13,9,20,0.00,0,,25
2013-2-23,68,52,36,32,29,24,67,46,20,30.07,29.99,29.89,10,10,10,14,7,,0.00,0,,43
2013-2-24,71,57,43,57,44,32,87,60,38,29.91,29.76,29.56,10,10,7,16,8,26,0.00,3,,146
2013-2-25,61,52,44,58,40,20,93,63,24,29.84,29.66,29.55,10,8,3,33,14,51,0.01,6,Rain,255
2013-2-26,62,50,37,28,27,24,65,44,23,29.96,29.89,29.84,10,10,10,22,11,31,0.00,0,,294
2013-2-27,61,51,41,30,22,16,60,35,19,30.25,30.09,29.86,10,10,10,18,8,29,0.00,0,,321
2013-2-28,61,50,39,27,23,18,62,40,19,30.34,30.26,30.20,10,10,10,14,7,23,0.00,0,,357